Temp
-2 -2 -2 -2 -2 -2 -2 -2 -2 -2 -3 -3 -3 -3 -3 -3 -3 -3 -4 -4 -4 -5 -6 -6 -6 -5 -5 -6 -5 -6 -6 -6 -6 -6 -6 -6 -5 -5 -6 -6 -7 -7 -8 -7 -8
-2 -2 -2 -2 -2 -2 -2 -3 -3 -3 -3 -3 -4 -3 -3 -3 -3 -3 -4 -4 -4 -5 -6 -6 -6 -5 -5 -6 -6 -6 -6 -6 -5 -5 -6 -6 -5 -5 -6 -6 -7 -7 -7 -7 -8
-2 -2 -2 -2 -2 -2 -2 -3 -3 -3 -3 -3 -3 -4 -3 -3 -3 -3 -4 -4 -4 -5 -6 -7 -6 -6 -6 -7 -6 -6 -6 -6 -6 -6 -6 -5 -6 -5 -5 -6 -7 -6 -7 -7 -7
-2 -2 -2 -2 -2 -2 -3 -3 -3 -3 -3 -3 -3 -4 -4 -3 -3 -3 -4 -4 -4 -5 -6 -7 -6 -6 -6 -7 -7 -8 -7 -7 -7 -6 -6 -6 -6 -6 -5 -6 -6 -6 -6 -7 -7
-3 -3 -3 -3 -3 -3 -3 -3 -3 -3 -3 -3 -3 -4 -4 -3 -3 -3 -4 -4 -4 -5 -6 -7 -6 -6 -6 -7 -7 -8 -8 -8 -7 -7 -6 -6 -6 -6 -5 -5 -6 -6 -6 -6 -7
-3 -3 -3 -3 -3 -3 -3 -3 -4 -4 -3 -3 -3 -4 -4 -4 -3 -4 -4 -4 -4 -4 -5 -6 -6 -6 -6 -7 -7 -7 -8 -8 -8 -7 -7 -6 -6 -6 -6 -5 -5 -6 -6 -6 -6
-3 -3 -3 -3 -3 -3 -3 -4 -4 -4 -4 -4 -4 -4 -4 -4 -4 -4 -4 -4 -4 -4 -5 -6 -6 -6 -6 -6 -7 -7 -8 -8 -7 -7 -7 -6 -6 -6 -6 -6 -5 -6 -6 -5 -6
-3 -3 -3 -3 -3 -3 -4 -4 -4 -4 -4 -4 -4 -4 -4 -4 -4 -4 -4 -4 -4 -4 -5 -6 -6 -6 -6 -6 -6 -7 -8 -8 -8 -7 -7 -7 -6 -7 -6 -6 -6 -6 -6 -5 -5
-3 -3 -3 -3 -3 -3 -4 -4 -4 -4 -4 -4 -4 -4 -4 -4 -4 -4 -4 -5 -5 -5 -5 -6 -6 -6 -6 -6 -6 -6 -6 -7 -7 -8 -8 -7 -7 -6 -6 -6 -6 -6 -5 -6 -5
-4 -4 -4 -4 -4 -4 -4 -4 -4 -5 -5 -4 -4 -5 -5 -5 -5 -5 -5 -5 -5 -5 -5 -6 -6 -6 -6 -6 -6 -6 -7 -6 -7 -7 -8 -7 -6 -6 -6 -6 -6 -6 -5 -5 -5
-4 -4 -4 -5 -4 -5 -5 -5 -5 -5 -5 -4 -4 -5 -5 -5 -5 -5 -5 -5 -5 -5 -5 -6 -6 -6 -6 -6 -7 -7 -7 -6 -6 -6 -7 -7 -7 -6 -6 -6 -6 -6 -6 -5 -5
-5 -5 -5 -5 -5 -5 -6 -5 -5 -5 -5 -5 -5 -5 -5 -5 -5 -5 -5 -5 -5 -6 -6 -6 -6 -6 -6 -7 -7 -7 -6 -6 -6 -6 -7 -7 -7 -6 -6 -6 -6 -6 -6 -5 -5
-6 -6 -6 -6 -6 -6 -6 -6 -6 -6 -6 -5 -5 -5 -5 -5 -5 -5 -5 -5 -6 -6 -6 -6 -6 -6 -6 -7 -7 -7 -7 -6 -6 -6 -6 -6 -6 -6 -6 -5 -5 -6 -6 -5 -5
-6 -6 -6 -6 -7 -7 -7 -7 -7 -6 -6 -6 -5 -5 -5 -5 -5 -5 -5 -5 -6 -6 -6 -6 -5 -6 -7 -7 -7 -7 -7 -7 -6 -6 -6 -6 -6 -6 -6 -5 -5 -5 -5 -5 -5
-6 -6 -6 -7 -7 -7 -8 -8 -8 -7 -7 -6 -6 -6 -5 -5 -5 -5 -5 -5 -6 -6 -6 -6 -5 -6 -7 -7 -7 -7 -7 -7 -7 -6 -6 -6 -6 -6 -6 -6 -6 -6 -6 -5 -5
-6 -6 -7 -7 -7 -8 -8 -8 -8 -8 -7 -6 -6 -6 -6 -5 -5 -5 -5 -5 -6 -6 -6 -6 -6 -6 -7 -7 -7 -8 -7 -6 -7 -6 -6 -6 -6 -6 -6 -6 -6 -6 -6 -6 -6
-6 -6 -7 -7 -8 -8 -8 -8 -8 -8 -7 -7 -6 -6 -6 -6 -6 -6 -6 -6 -6 -6 -6 -6 -6 -6 -7 -7 -7 -7 -6 -6 -6 -6 -6 -6 -6 -6 -6 -6 -6 -5 -5 -6 -7
-6 -6 -7 -7 -8 -8 -8 -9 -8 -8 -8 -7 -7 -7 -7 -6 -6 -6 -6 -6 -6 -6 -6 -6 -7 -7 -7 -7 -6 -6 -6 -6 -6 -6 -6 -6 -6 -6 -6 -6 -6 -5 -5 -5 -6
-6 -7 -7 -8 -8 -8 -8 -8 -8 -8 -8 -8 -8 -8 -7 -7 -7 -7 -7 -6 -6 -6 -7 -7 -7 -7 -7 -6 -6 -7 -6 -6 -6 -6 -6 -6 -6 -6 -6 -6 -6 -5 -5 -5 -6
-7 -7 -7 -8 -8 -8 -8 -9 -9 -8 -8 -8 -8 -8 -8 -8 -8 -8 -7 -7 -7 -7 -7 -7 -7 -8 -7 -7 -7 -7 -6 -6 -6 -6 -6 -7 -7 -6 -6 -6 -6 -6 -5 -5 -5
-7 -7 -7 -8 -8 -8 -8 -9 -9 -9 -9 -9 -9 -9 -8 -9 -9 -9 -8 -8 -8 -7 -7 -7 -7 -7 -8 -8 -7 -8 -7 -7 -6 -6 -6 -6 -7 -7 -7 -6 -6 -6 -6 -6 -5
-7 -7 -7 -7 -8 -8 -8 -8 -9 -8 -9 -9 -9 -9 -9 -9 -9 -9 -8 -9 -9 -8 -8 -8 -8 -8 -8 -8 -8 -8 -8 -8 -7 -7 -6 -6 -6 -7 -7 -7 -6 -6 -6 -6 -6
-6 -7 -7 -7 -7 -8 -8 -8 -8 -8 -8 -8 -8 -9 -9 -9 -9 -9 -9 -9 -9 -9 -9 -8 -8 -8 -8 -8 -8 -8 -8 -8 -8 -7 -7 -7 -6 -7 -7 -7 -6 -6 -6 -6 -6
-6 -7 -7 -7 -7 -7 -7 -8 -8 -8 -8 -8 -8 -8 -8 -9 -9 -9 -9 -9 -9 -9 -9 -9 -9 -9 -8 -8 -8 -8 -8 -8 -8 -8 -8 -8 -7 -7 -7 -7 -7 -6 -7 -6 -6
-7 -7 -7 -6 -7 -7 -7 -7 -7 -7 -7 -7 -7 -8 -8 -8 -8 -8 -8 -9 -9 -9 -8 -9 -8 -9 -9 -9 -9 -9 -9 -9 -9 -8 -8 -8 -8 -7 -7 -7 -7 -7 -7 -7 -7
-7 -7 -7 -7 -7 -6 -7 -7 -7 -7 -7 -7 -7 -8 -8 -8 -8 -8 -8 -8 -8 -9 -8 -8 -8 -8 -9 -9 -9 -8 -8 -9 -8 -8 -8 -8 -8 -8 -8 -8 -7 -7 -7 -7 -7
-7 -7 -7 -7 -7 -7 -7 -7 -7 -7 -7 -7 -7 -7 -7 -7 -7 -8 -8 -8 -8 -8 -8 -8 -8 -8 -8 -8 -8 -8 -8 -8 -8 -8 -7 -7 -8 -8 -8 -8 -8 -8 -8 -7 -7
Height
5929 5929 5928 5928 5927 5927 5926 5927 5925 5925 5925 5925 5924 5923 5921 5921 5920 5918 5916 5915 5912 5911 5910 5909 5908 5907 5906 5905 5905 5904 5904 5904 5903 5903 5902 5901 5900 5902 5902 5901 5899 5898 5898 5897 5897
5927 5928 5927 5927 5927 5925 5925 5925 5924 5924 5925 5924 5923 5923 5921 5921 5921 5919 5918 5916 5914 5912 5911 5910 5910 5910 5909 5908 5907 5905 5905 5905 5904 5904 5903 5902 5903 5905 5905 5903 5901 5901 5900 5899 5900
5925 5926 5926 5925 5925 5924 5923 5923 5924 5923 5923 5923 5923 5922 5921 5921 5921 5920 5919 5918 5915 5913 5913 5913 5913 5913 5912 5910 5908 5906 5904 5903 5904 5905 5905 5904 5904 5905 5906 5905 5903 5903 5902 5901 5902
5923 5923 5923 5923 5923 5922 5921 5921 5921 5921 5921 5921 5922 5921 5921 5920 5922 5920 5918 5918 5916 5915 5914 5914 5914 5915 5913 5911 5910 5908 5905 5903 5904 5904 5907 5907 5906 5906 5906 5906 5905 5905 5906 5905 5905
5920 5919 5920 5920 5920 5920 5919 5918 5917 5918 5918 5919 5920 5920 5920 5920 5920 5919 5918 5917 5916 5915 5915 5916 5916 5916 5916 5914 5913 5911 5910 5907 5905 5907 5909 5909 5908 5908 5908 5907 5906 5908 5908 5908 5909
5915 5915 5915 5916 5916 5916 5916 5915 5915 5915 5915 5916 5918 5918 5919 5919 5918 5918 5918 5917 5917 5916 5916 5917 5918 5918 5918 5917 5916 5914 5913 5912 5911 5911 5911 5911 5910 5909 5909 5908 5908 5910 5910 5910 5911
5910 5909 5910 5910 5911 5911 5912 5911 5911 5912 5912 5913 5914 5915 5917 5918 5917 5917 5916 5916 5917 5917 5916 5919 5919 5920 5920 5919 5918 5916 5916 5916 5915 5914 5913 5913 5912 5911 5910 5910 5910 5910 5911 5911 5913
5903 5903 5903 5904 5904 5905 5906 5906 5907 5908 5909 5910 5911 5912 5913 5915 5914 5915 5915 5915 5916 5917 5917 5919 5920 5921 5922 5922 5921 5920 5920 5919 5918 5917 5914 5914 5914 5913 5913 5912 5911 5911 5911 5913 5915
5896 5896 5896 5896 5898 5899 5900 5900 5901 5903 5904 5906 5908 5909 5911 5912 5913 5913 5914 5914 5915 5917 5917 5919 5921 5923 5924 5923 5923 5923 5924 5923 5922 5920 5919 5917 5916 5914 5914 5914 5914 5913 5912 5914 5916
5889 5889 5889 5889 5890 5892 5892 5894 5895 5897 5899 5901 5904 5907 5908 5909 5910 5911 5911 5912 5915 5916 5917 5919 5922 5924 5924 5924 5922 5923 5924 5924 5924 5924 5922 5920 5918 5918 5915 5917 5916 5915 5914 5915 5916
5882 5881 5881 5881 5882 5884 5885 5887 5890 5892 5893 5897 5901 5903 5904 5906 5907 5909 5910 5911 5914 5915 5916 5918 5921 5922 5923 5924 5922 5923 5924 5924 5924 5925 5925 5923 5920 5919 5918 5918 5918 5917 5917 5917 5918
5875 5874 5874 5873 5874 5875 5877 5879 5882 5885 5888 5892 5896 5898 5901 5903 5905 5907 5909 5911 5912 5914 5915 5917 5918 5920 5922 5921 5922 5923 5925 5926 5925 5924 5924 5924 5922 5920 5920 5920 5920 5919 5919 5919 5920
5871 5869 5867 5866 5867 5868 5870 5872 5875 5878 5882 5887 5891 5894 5898 5900 5903 5905 5907 5908 5910 5913 5913 5915 5917 5919 5919 5920 5922 5924 5925 5926 5926 5924 5923 5924 5923 5922 5920 5920 5920 5920 5920 5920 5921
5868 5865 5862 5861 5862 5862 5864 5866 5869 5873 5877 5883 5887 5889 5893 5897 5900 5902 5905 5907 5908 5910 5912 5913 5915 5916 5918 5920 5922 5923 5925 5926 5927 5925 5923 5923 5924 5922 5921 5920 5919 5919 5920 5920 5922
5865 5862 5858 5856 5856 5856 5859 5861 5865 5869 5874 5879 5882 5885 5890 5895 5897 5900 5902 5904 5906 5908 5911 5913 5914 5914 5917 5919 5921 5922 5923 5924 5925 5924 5925 5924 5925 5923 5922 5921 5919 5918 5918 5920 5921
5863 5860 5856 5853 5851 5852 5854 5858 5862 5868 5870 5875 5879 5883 5887 5891 5894 5897 5899 5901 5904 5906 5908 5911 5913 5914 5916 5917 5919 5921 5921 5922 5924 5924 5925 5925 5926 5925 5924 5922 5920 5919 5918 5919 5921
5862 5858 5854 5851 5850 5851 5853 5857 5862 5865 5869 5874 5878 5882 5885 5888 5891 5893 5896 5898 5901 5903 5905 5907 5911 5913 5915 5916 5918 5919 5920 5922 5924 5924 5925 5926 5927 5926 5926 5924 5922 5920 5919 5920 5919
5861 5858 5854 5852 5851 5853 5855 5859 5862 5864 5868 5873 5877 5881 5884 5886 5888 5891 5893 5895 5897 5899 5902 5905 5908 5910 5912 5914 5915 5917 5920 5922 5923 5924 5925 5925 5927 5928 5926 5925 5923 5922 5921 5920 5920
5862 5860 5856 5854 5854 5855 5858 5860 5863 5866 5869 5873 5876 5879 5882 5884 5886 5888 5890 5892 5895 5897 5900 5901 5904 5905 5907 5911 5915 5917 5918 5921 5921 5922 5925 5926 5928 5928 5926 5925 5924 5923 5921 5920 5920
5863 5861 5859 5857 5857 5859 5862 5864 5867 5869 5871 5875 5877 5880 5882 5883 5885 5887 5889 5891 5893 5895 5897 5899 5901 5903 5905 5910 5913 5915 5917 5919 5920 5920 5922 5924 5926 5927 5926 5925 5923 5923 5922 5921 5920
5865 5863 5862 5860 5861 5862 5864 5866 5869 5871 5873 5876 5878 5879 5880 5882 5884 5886 5888 5890 5892 5894 5896 5898 5901 5903 5905 5908 5910 5912 5914 5916 5918 5918 5919 5921 5924 5924 5924 5924 5923 5922 5921 5921 5922
5865 5865 5864 5863 5864 5864 5865 5867 5868 5870 5872 5874 5876 5877 5878 5881 5883 5885 5887 5889 5891 5893 5895 5896 5898 5900 5903 5905 5907 5909 5910 5912 5914 5916 5916 5916 5921 5920 5921 5922 5924 5922 5921 5920 5919
5866 5866 5865 5864 5864 5865 5866 5867 5868 5868 5869 5871 5872 5874 5876 5879 5882 5883 5885 5886 5888 5890 5893 5895 5897 5898 5901 5904 5905 5907 5908 5910 5912 5912 5913 5914 5917 5916 5917 5918 5920 5922 5920 5920 5920
5866 5866 5866 5865 5865 5865 5865 5866 5866 5867 5867 5868 5869 5871 5872 5874 5876 5879 5881 5883 5885 5887 5890 5892 5893 5896 5899 5901 5902 5903 5904 5905 5906 5907 5906 5908 5911 5912 5914 5915 5917 5918 5919 5918 5918
5865 5865 5865 5865 5865 5865 5865 5865 5866 5867 5867 5867 5868 5869 5870 5871 5873 5874 5876 5878 5880 5883 5885 5888 5889 5891 5893 5894 5896 5897 5898 5898 5898 5898 5899 5900 5903 5907 5907 5908 5910 5911 5913 5914 5915
5864 5864 5864 5864 5864 5864 5865 5865 5865 5865 5865 5865 5866 5866 5867 5868 5870 5871 5872 5874 5876 5879 5880 5882 5884 5886 5888 5889 5890 5891 5892 5892 5891 5892 5892 5893 5895 5899 5899 5902 5902 5905 5907 5909 5908
5862 5862 5862 5863 5862 5862 5862 5863 5863 5863 5863 5863 5863 5864 5864 5865 5866 5867 5868 5869 5871 5872 5874 5876 5878 5879 5881 5882 5883 5885 5887 5885 5885 5885 5885 5885 5887 5889 5890 5893 5896 5898 5901 5903 5903
Wind_Speed
11 11 11 12 13 13 13 13 13 13 12 11 11 11 13 14 15 15 16 15 12 9 10 11 15 17 13 7 10 14 18 11 8 9 11 10 9 12 11 9 10 13 10 13 15
12 12 13 13 13 14 13 12 12 11 11 10 10 9 11 12 13 13 13 13 11 7 6 10 13 14 12 9 11 12 12 7 7 6 9 7 6 8 11 9 12 13 13 15 13
14 14 14 14 15 15 15 15 12 12 11 10 9 8 9 11 11 11 10 10 9 7 8 13 11 6 15 20 17 13 15 8 8 6 5 7 6 6 10 10 12 12 12 17 15
16 16 16 16 16 15 15 15 14 14 12 10 9 8 7 10 9 9 9 8 8 6 9 13 11 17 22 20 22 30 18 10 9 7 7 7 7 5 5 8 11 11 11 14 15
19 19 18 18 18 16 15 15 15 15 14 13 11 9 8 8 8 7 6 5 6 6 7 15 15 19 20 25 26 33 31 27 17 12 9 9 7 4 4 6 10 9 10 11 15
22 22 22 22 21 20 19 18 17 15 16 15 13 11 8 9 8 6 4 3 5 4 5 15 12 12 18 21 22 27 28 28 28 19 10 9 9 5 4 6 10 8 11 9 11
25 25 25 25 25 24 22 21 19 17 15 15 14 13 10 9 7 5 3 2 3 4 6 15 13 11 10 19 19 23 25 24 22 21 17 10 12 8 5 6 8 8 9 9 7
27 28 27 27 27 26 25 24 21 19 17 15 13 12 12 9 8 7 3 3 1 3 6 11 12 13 12 13 19 20 20 19 21 18 19 16 13 12 8 5 8 7 7 8 6
31 31 31 31 30 28 26 24 23 21 19 16 13 11 10 11 9 8 6 4 2 3 7 15 13 14 12 11 14 14 15 15 17 18 17 15 11 12 11 6 6 6 6 7 8
31 31 31 31 31 29 28 26 24 23 21 19 15 11 10 10 9 9 9 7 4 5 7 14 15 13 10 8 10 9 9 13 14 15 14 12 11 11 11 8 6 5 5 4 7
30 30 30 30 30 28 28 26 26 24 22 21 18 13 10 9 8 9 9 9 7 8 7 11 14 11 8 5 9 5 4 9 13 10 8 9 7 9 10 7 6 4 4 3 4
26 27 28 29 29 28 28 27 26 24 22 21 19 17 14 11 10 9 7 8 8 11 10 11 12 11 7 6 5 2 2 3 9 10 10 8 9 8 4 4 5 4 2 2 5
16 18 20 22 24 23 22 24 24 22 20 21 19 17 16 14 10 10 9 8 9 11 12 13 12 11 5 2 1 5 4 6 6 9 11 6 3 3 6 3 3 5 3 2 2
15 18 18 19 20 21 21 19 20 20 19 19 19 19 18 14 11 11 11 10 9 12 15 13 9 10 8 6 4 7 8 10 5 6 8 5 3 0 5 6 6 8 8 3 2
16 20 16 16 16 16 17 16 16 17 18 20 20 19 17 14 12 11 10 11 10 10 13 13 8 9 9 9 8 10 11 13 3 6 6 5 3 3 5 5 6 5 8 7 5
15 19 14 12 11 9 11 14 15 17 19 20 20 19 17 15 14 13 13 12 11 10 11 13 10 8 12 12 8 10 14 4 5 9 8 7 7 7 8 10 10 8 5 11 6
13 19 14 9 7 6 11 15 17 19 15 17 16 16 16 16 16 16 15 14 15 15 15 14 13 15 14 14 12 12 8 9 7 5 5 6 7 3 4 6 9 12 6 1 4
12 18 15 8 5 3 10 16 19 19 14 12 13 12 12 12 14 15 16 15 15 16 15 12 13 18 18 16 14 11 8 9 9 4 5 8 6 3 3 3 6 9 8 5 2
12 16 17 13 5 4 11 14 15 15 12 11 11 12 12 13 14 14 15 16 17 16 18 17 19 22 22 15 12 7 9 13 12 12 10 5 3 5 7 5 6 6 7 7 3
12 14 17 15 12 5 7 9 10 11 9 9 9 8 11 14 12 12 11 12 14 14 18 21 21 24 23 15 13 13 12 13 15 17 17 14 9 5 8 6 1 4 5 6 3
9 11 13 15 14 10 5 4 5 6 6 5 4 6 9 19 17 16 12 12 12 14 16 20 22 26 26 20 15 18 16 14 13 14 18 17 11 10 8 5 7 4 2 1 2
9 7 7 10 12 9 8 7 5 6 7 6 7 7 8 21 21 18 14 13 12 12 15 21 24 27 26 23 20 22 19 16 13 13 16 17 16 15 13 10 6 9 6 5 5
7 6 4 5 8 8 5 4 4 4 5 4 4 7 10 17 20 19 17 13 10 14 12 18 25 27 26 25 23 25 24 21 19 19 16 16 14 19 19 17 14 14 12 11 11
3 3 3 3 2 3 4 4 5 7 7 7 7 8 11 15 15 15 14 13 10 14 17 17 17 17 21 24 24 25 25 24 24 23 23 20 16 18 23 23 21 18 14 15 12
3 3 2 2 1 1 1 2 4 5 7 8 8 9 10 12 15 18 16 16 16 15 16 17 16 17 17 20 18 20 24 25 25 29 31 29 22 20 19 21 25 25 19 24 20
5 5 4 4 6 6 6 5 5 4 5 6 7 8 10 13 14 17 18 18 17 17 17 16 16 17 18 19 19 20 21 23 28 32 32 32 31 26 22 20 23 22 23 24 26
6 6 7 7 8 9 8 9 8 7 8 7 8 8 10 11 12 14 17 19 19 19 18 19 18 16 17 19 20 20 18 21 24 23 26 28 32 31 30 27 26 25 27 29 32
Wind_Direction
285 293 301 308 312 315 318 325 325 329 334 332 344 351 345 0 10 14 27 37 50 57 69 61 52 33 34 74 102 99 112 99 100 102 72 65 69 90 107 100 88 77 79 96 114
286 291 293 296 300 303 306 310 316 324 332 329 332 342 337 348 6 14 27 37 45 53 75 57 45 28 38 84 97 91 91 85 110 121 55 77 70 96 119 104 90 74 89 90 101
279 282 284 287 289 291 294 296 301 307 319 323 321 328 330 336 359 11 23 41 44 25 72 80 58 31 87 87 85 72 59 37 86 114 75 100 80 98 109 105 92 74 84 96 105
274 276 279 280 283 287 289 288 289 290 295 299 304 311 318 325 348 358 12 41 47 24 70 87 83 103 93 99 87 80 77 79 119 135 92 89 107 103 106 97 96 87 80 96 96
274 275 277 279 280 283 283 284 284 281 280 281 284 290 302 310 327 341 12 32 56 38 83 107 114 95 94 97 94 88 79 74 95 119 102 90 105 119 120 113 107 109 92 99 107
272 275 275 276 276 276 275 277 279 280 278 274 273 274 275 286 305 326 355 14 58 52 90 132 135 117 104 109 107 101 90 84 76 80 101 101 105 119 101 123 112 117 111 98 112
276 275 273 273 275 274 272 270 271 272 275 275 271 267 265 274 278 293 309 311 62 80 94 146 149 156 138 124 116 107 93 86 82 82 77 83 110 123 97 100 122 117 123 114 118
276 276 274 272 271 271 268 266 265 265 266 270 272 264 261 256 263 273 266 266 2 113 113 152 167 156 155 131 126 112 100 94 84 78 79 72 107 110 103 84 101 129 125 125 136
277 277 275 273 270 268 265 263 259 257 255 257 261 263 258 249 243 250 245 238 208 159 130 157 162 160 158 156 135 115 105 89 87 69 73 75 114 111 106 98 92 103 129 129 139
278 277 275 273 270 266 262 259 257 252 247 246 247 250 248 246 244 238 239 232 192 191 162 170 174 160 168 164 125 100 81 79 92 67 75 58 128 116 106 99 92 105 113 156 158
279 278 276 273 270 266 262 258 255 250 244 240 239 236 241 239 229 224 231 224 185 194 191 174 180 179 171 157 123 136 96 74 76 65 83 59 83 127 110 96 87 80 126 149 169
284 282 280 276 272 269 262 256 252 247 243 237 230 228 228 233 221 212 214 206 185 195 202 195 192 195 193 100 146 143 347 48 86 60 82 63 67 60 90 110 124 117 117 153 182
306 296 287 277 268 263 261 252 248 242 235 231 225 222 220 224 213 211 207 205 191 191 206 202 210 200 197 135 259 244 303 339 136 100 95 106 87 350 351 46 175 177 187 199 179
325 320 292 282 271 260 254 252 238 234 227 220 212 212 212 215 210 211 203 206 194 196 205 213 223 215 203 230 300 286 271 328 320 109 89 119 111 218 283 307 296 218 205 215 193
319 326 302 290 279 262 246 235 227 216 215 211 205 205 201 204 212 214 212 212 210 207 207 221 214 225 219 242 266 266 284 300 297 122 103 95 135 302 299 337 314 288 227 199 189
327 336 324 310 285 249 211 201 196 197 202 203 203 204 205 205 213 214 211 212 210 206 216 217 200 200 213 234 246 248 265 234 188 130 129 113 106 93 73 46 26 22 279 232 186
342 354 352 339 311 212 183 182 180 183 192 198 196 200 209 211 213 218 216 209 206 202 205 207 188 192 204 202 215 231 240 192 206 175 136 143 153 127 33 29 31 30 29 128 146
357 13 16 12 22 153 178 174 178 177 189 184 183 187 201 210 220 221 220 216 211 206 214 206 195 194 197 205 214 232 239 217 224 246 186 112 174 217 278 297 13 35 17 349 42
18 30 36 40 56 148 161 173 176 178 183 174 174 180 194 204 219 221 222 221 222 212 199 195 195 200 203 209 208 215 234 224 236 243 230 222 238 281 228 290 311 9 18 357 261
36 46 46 60 63 100 157 172 180 184 186 175 179 187 194 200 214 225 236 234 226 213 207 206 201 203 211 220 210 223 231 235 239 252 248 238 266 231 231 262 200 340 356 358 332
42 56 59 67 69 83 86 145 146 180 210 197 196 203 204 195 201 212 223 228 229 220 206 215 215 211 216 224 223 227 233 231 239 251 258 258 243 213 227 243 215 220 46 28 269
40 57 74 83 78 85 97 108 126 162 186 195 197 202 190 194 199 210 221 232 228 227 208 212 213 219 214 222 220 225 234 244 248 253 258 256 237 231 220 199 242 249 253 308 228
34 41 51 85 99 108 118 142 174 198 217 214 236 219 212 198 210 221 226 239 226 211 197 209 215 223 225 230 232 233 243 258 266 274 256 264 248 236 246 250 237 250 276 265 274
349 18 46 67 86 117 142 174 202 222 237 236 231 223 217 225 231 221 224 224 213 205 212 211 218 227 240 239 241 239 242 249 258 263 262 258 239 255 247 249 257 257 268 244 247
326 283 279 292 261 269 283 264 260 255 260 257 252 243 232 231 237 244 239 230 224 224 216 212 219 220 224 229 234 239 243 250 252 250 255 258 249 243 255 250 251 253 257 235 241
310 295 285 289 294 305 311 312 312 289 288 279 272 257 247 245 244 246 249 250 247 246 248 250 247 246 254 257 259 258 259 268 262 261 263 264 264 252 247 241 248 249 247 233 244
320 297 293 287 287 289 289 286 287 289 287 279 273 260 257 255 254 253 256 262 267 272 274 271 273 271 267 268 268 259 271 266 269 270 264 263 257 250 246 242 240 237 239 237 232